Showing default

QIANFAN-67, 62797

Orbit data source: Space-Track

QIANFAN-67, 62797 is a Chinese payload satellite in LEO that was launched on Thu, 23 Jan 2025 UTC via a CHANG ZHENG 6A launch vehicle from the Taiyaun Space Center, China (TSC). Payload-class satellites include a variety of spacecraft equipped with specific instruments for various scientific and technological missions. These include communications satellites like Starlink; space stations such as the ISS; scientific satellites like the Hubble; Earth observation satellites from companies like Planet Labs, Umbra, and HawkEye 360; GPS; miniature CubeSats for education and research; and military/defense satellites.

Loading next visibility...
Identifier
62797, 2025-016N
Orbit
LEO
Country
Flag of CNCN / PRC
Related business
Manufacturer
SECM
Mission
Operational Commercial Communications
Bus & Motor
QIANFAN, Unknown motor
Mass
267 kg wet, ~267 kg dry
Launch date (UTC)
2025-01-23 (11 months ago)
Launch vehicle
CHANG ZHENG 6A
Launch site
Taiyaun Space Center, China (TSC)
Object type
Payload
Rocket body
Debris
Shape & HBR
Box + 1 Pan, 1.3 m
Radar Cross Section
13.200 m², Large (>1 m²)

Expand to show TLE details & history
Last TLE update: 9 hours ago

TLE from 9 hours ago
0 QIANFAN-67
1 62797U 25016N   25352.54056159  .00000138  00000-0  19460-3 0  9992
2 62797  88.9776 102.4561 0013762 333.7261  26.3191 13.50982915 48042
Epoch: 2025-12-18T12:58Z
TLE epoch observation values (Epoch: 2025-12-18T12:58:24.521Z)
Latitude
0.00003°
Longitude
-179.54067°
Altitude
1,062.413 km
Speed
7.325 km/s
True Right ascension
06h 49m 49s
True Declination
0° 00' 00"
Sunlit
Object was in full shadow at epoch
Visualization orbit readout
Latitude
Unknown
Longitude
Unknown
Altitude
Unknown
Speed
Unknown
Apparent Right ascension
Unknown
Apparent Declination
Unknown
Sunlit
N/A
Visualization observer readout
Local Sidereal Time
21:01:54
Azimuth
Unknown
Elevation
Unknown
Doppler factor
Unknown
Orbital elements
Apogee altitude
1,075.94 km
Perigee altitude
1,055.451 km
Semi-major axis
7,443.833 km
Eccentricity
0.00138
Inclination
88.9776°
RAAN
102.4561°
Arg. of periapsis
333.7261°
True anomaly
26.38913°
Mean anomaly
26.3191°
Eccentric anomaly
26.3541°
Mean motion
3.37947 °/min
Orbital period
106.53 mins
BSTAR
0.0001946
Loading maneuver chart data...
Computing Atmospheric mass density...
Loading historical data...
Loading historical data...
Loading historical data...
Loading historical data...
Loading historical data...
Loading historical data...
Loading historical data...

Documentation

Showing up to 5 results
|